Location: Janesville
(42.6830°N, 89.0190°W)
Time: 16:15:38
(UTC-05:00)

Hubble Space Telescope - Visible Passes

Search period start: 25 June 2016 00:00
Search period end: 05 July 2016 00:00
Orbit: 539 x 543 km, 28.5° (Epoch: 25 June)

Date Brightness Start Highest point End Pass type
(mag) Time Alt. Az. Time Alt. Az. Time Alt. Az.
02 Jul 2.9 21:44:35 10° S 21:45:33 11° S 21:46:01 11° SSE visible
03 Jul 2.9 21:34:30 10° SSW 21:35:42 11° S 21:36:55 10° SSE visible
04 Jul 2.9 21:24:36 10° SSW 21:25:51 11° S 21:27:08 10° SSE visible
